This is the latest recevied weather packets stored in our database for station/object SP1BMW-13. If no packets are shown the sender has not sent any weather packets the latest 10 day(s).
| Time | Temp. | Humidity | Pressure | Rain* | Wind** | Luminosity | Snow |
|---|---|---|---|---|---|---|---|
| 1787918238 | 23.89° C | 54% | 1009.4 hPa | 0 mm | 0.89 m/s, 78° | 183 W/m² | - |
| 1787918178 | 23.89° C | 53% | 1009.3 hPa | 0 mm | 0.45 m/s, 56° | 185 W/m² | - |
| 1787918118 | 23.89° C | 53% | 1009.4 hPa | 0 mm | 1.34 m/s, 24° | 188 W/m² | - |
| 1787918058 | 23.89° C | 54% | 1009.3 hPa | 0 mm | 1.79 m/s, 61° | 189 W/m² | - |
| 1787917998 | 23.89° C | 54% | 1009 hPa | 0 mm | 1.34 m/s, 25° | 190 W/m² | - |
| 1787917938 | 23.89° C | 52% | 1009 hPa | 0 mm | 1.79 m/s, 28° | 191 W/m² | - |
| 1787917878 | 24.44° C | 53% | 1009.1 hPa | 0 mm | 0.89 m/s, 25° | 193 W/m² | - |
| 1787917818 | 24.44° C | 53% | 1009.1 hPa | 0 mm | 1.79 m/s, 53° | 194 W/m² | - |
| 1787917758 | 24.44° C | 52% | 1009 hPa | 0 mm | 1.79 m/s, 39° | 193 W/m² | - |
| 1787917698 | 24.44° C | 53% | 1009.3 hPa | 0 mm | 0.45 m/s, 76° | 191 W/m² | - |
| 1787917638 | 24.44° C | 52% | 1009.1 hPa | 0 mm | 1.34 m/s, 91° | 187 W/m² | - |
| 1787917578 | 24.44° C | 54% | 1009.1 hPa | 0 mm | 0.45 m/s, 351° | 183 W/m² | - |
| 1787917518 | 24.44° C | 52% | 1009.1 hPa | 0 mm | 1.34 m/s, 48° | 182 W/m² | - |
| 1787917458 | 24.44° C | 52% | 1009.3 hPa | 0 mm | 1.34 m/s, 44° | 185 W/m² | - |
| 1787917398 | 24.44° C | 52% | 1009.2 hPa | 0 mm | 0.45 m/s, 54° | 194 W/m² | - |
| 1787917337 | 24.44° C | 52% | 1009.3 hPa | 0 mm | 1.34 m/s, 255° | 206 W/m² | - |
| 1787917277 | 24.44° C | 53% | 1009.1 hPa | 0 mm | 0.89 m/s, 53° | 218 W/m² | - |
| 1787917218 | 24.44° C | 53% | 1009 hPa | 0 mm | 0.89 m/s, 39° | 226 W/m² | - |
| 1787917157 | 24.44° C | 53% | 1008.9 hPa | 0 mm | 1.34 m/s, 42° | 235 W/m² | - |
| 1787917098 | 24.44° C | 53% | 1009 hPa | 0 mm | 0.89 m/s, 83° | 236 W/m² | - |
| 1787917038 | 24.44° C | 51% | 1009 hPa | 0 mm | 0.89 m/s, 35° | 233 W/m² | - |
| 1787916978 | 24.44° C | 52% | 1009.1 hPa | 0 mm | 0.89 m/s, 261° | 236 W/m² | - |
| 1787916918 | 24.44° C | 51% | 1009.1 hPa | 0 mm | 1.79 m/s, 36° | 254 W/m² | - |
| 1787916858 | 24.44° C | 51% | 1009.2 hPa | 0 mm | 1.79 m/s, 19° | 284 W/m² | - |
| 1787916798 | 25° C | 52% | 1009.3 hPa | 0 mm | 0.89 m/s, 130° | 325 W/m² | - |
* Rain latest hour (hover to see other rain measurements)
** Current wind speed in m/s (hover to see current wind gust speed)